Terug naar catalogus

STARLINK-35999

ActiefCommunicatieVLEO
NORAD 66951·PAYLOAD·🇺🇸 United States

Gelanceerd Dec 7, 2025 vanaf Vandenberg Space Force Base

Loading…

Volgende Passages (komende 24 uur)

TLE

VersSource: CelesTrak SupGP

Epoch: Sep 15, 2026, 03:17 UTC

1 66951C 25286AC  26258.13729167 -.00047648  00000+0 -14079-2 0  2580
2 66951  53.1580 194.8599 0001399  82.4514 259.9604 15.34412450    17

Volg STARLINK-35999 in realtime met AllMySat

Download on the App Store